Pomona, NJ

11:04 PM EDT on September 30, 2016 (GMT -0400)
Atlantic City International

Weather History for KACY - March, 2014

Change the Weather History Date:

Sunday, March 16, 2014

  Actual Average Record
Temperature  
Mean Temperature 36 °F 42 °F  
Max Temperature 46 °F 52 °F 78 °F (1990)
Min Temperature 26 °F 33 °F 15 °F (1992)
Degree Days  
Heating Degree Days 29 23  
Month to date heating degree days 471 399  
Since 1 July heating degree days 4334 3990  
Cooling Degree Days 0 0  
Month to date cooling degree days 0 0  
Year to date cooling degree days 0 0  
Moisture  
Dew Point 20 °F    
Average Humidity 56    
Maximum Humidity 92    
Minimum Humidity 20    
Precipitation  
Precipitation 0.15 in 0.14 in 1.52 in (1923)
Month to date precipitation 1.15 2.10  
Year to date precipitation 9.70 8.19  
Snow  
Snow 2.20 in 0.00 in 2.20 in (2014)
Month to date snowfall 7.7 0.9  
Since 1 July snowfall 35.9 16.0  
Snow Depth 0.00 in    
Sea Level Pressure  
Sea Level Pressure 30.14 in    
Wind  
Wind Speed 9 mph (NNE)    
Max Wind Speed 18 mph    
Max Gust Speed 22 mph    
Visibility 8 miles    
Events Snow    
T = Trace of Precipitation, MM = Missing Value Source: NWS Daily Summary

Daily Weather History Graph

Daily Weather History Graph

Search for Another Location

Airport or City:

Trip Planner

Search our weather history database for the weather conditions in past years. The results will help you decide how hot, cold, wet, or windy it might be!

Date:

Astronomy

Mar. 16, 2014 Rise Set
Actual Time 7:08 AM EDT 7:06 PM EDT
Civil Twilight 6:41 AM EDT 7:33 PM EDT
Nautical Twilight 6:10 AM EDT 8:04 PM EDT
Astronomical Twilight 5:38 AM EDT 8:35 PM EDT
Moon 7:21 PM EDT (3/16) 6:50 AM EDT (3/16)
Length of Visible Light 12h 51m
Length of Day
11h 58m
Full, 100% of the Moon is Illuminated
Mar 16
Full
Mar 16
Full
Mar 23
Last Quarter
Mar 30
New
Apr 7
First Quarter

Hourly Weather History & Observations

Time (EDT) Temp. Windchill Dew Point Humidity Pressure Visibility Wind Dir Wind Speed Gust Speed Precip Events Conditions
12:54 AM 41.0 °F 35.2 °F 24.1 °F 51% 30.03 in 10.0 mi NW 9.2 mph - N/A   Clear
1:54 AM 39.0 °F 34.8 °F 24.1 °F 55% 30.06 in 10.0 mi NW 5.8 mph - N/A   Clear
2:54 AM 39.0 °F 34.8 °F 24.1 °F 55% 30.06 in 10.0 mi WNW 5.8 mph - N/A   Clear
3:54 AM 36.0 °F 33.3 °F 24.1 °F 62% 30.06 in 10.0 mi NW 3.5 mph - N/A   Clear
4:54 AM 35.1 °F 31.0 °F 24.1 °F 64% 30.09 in 10.0 mi NNW 4.6 mph - N/A   Clear
5:54 AM 33.1 °F 27.7 °F 23.0 °F 66% 30.11 in 10.0 mi WNW 5.8 mph - N/A   Clear
6:54 AM 32.0 °F 26.4 °F 21.0 °F 64% 30.14 in 10.0 mi NNW 5.8 mph - N/A   Clear
7:54 AM 34.0 °F 25.5 °F 21.0 °F 59% 30.17 in 10.0 mi North 11.5 mph - N/A   Clear
8:54 AM 37.0 °F 29.3 °F 19.0 °F 48% 30.18 in 10.0 mi NNW 11.5 mph - N/A   Clear
9:54 AM 39.0 °F 31.0 °F 15.1 °F 38% 30.19 in 10.0 mi NNW 13.8 mph 19.6 mph N/A   Clear
10:54 AM 41.0 °F 32.8 °F 8.1 °F 26% 30.17 in 10.0 mi NNW 16.1 mph 20.7 mph N/A   Clear
11:54 AM 43.0 °F 36.8 °F 8.1 °F 24% 30.18 in 10.0 mi NNW 11.5 mph - N/A   Clear
12:54 PM 44.1 °F 39.5 °F 7.0 °F 22% 30.16 in 10.0 mi North 8.1 mph - N/A   Clear
1:54 PM 44.1 °F - 7.0 °F 22% 30.17 in 10.0 mi North - - N/A   Clear
2:54 PM 42.1 °F 37.1 °F 18.0 °F 38% 30.15 in 10.0 mi East 8.1 mph - N/A   Partly Cloudy
3:54 PM 37.9 °F 30.9 °F 19.0 °F 47% 30.17 in 10.0 mi East 10.4 mph - N/A   Clear
4:54 PM 36.0 °F 29.6 °F 19.0 °F 50% 30.17 in 10.0 mi East 8.1 mph - N/A   Scattered Clouds
5:54 PM 35.1 °F 28.6 °F 19.0 °F 52% 30.17 in 10.0 mi East 8.1 mph - N/A   Overcast
6:30 PM 34.0 °F 28.0 °F 18.0 °F 52% 30.18 in 10.0 mi East 6.9 mph - N/A   Overcast
6:54 PM 35.1 °F 30.1 °F 18.0 °F 50% 30.17 in 10.0 mi East 5.8 mph - N/A   Mostly Cloudy
7:01 PM 35.1 °F 29.3 °F 18.0 °F 50% 30.16 in 10.0 mi East 6.9 mph - N/A   Overcast
7:54 PM 33.1 °F 25.5 °F 21.0 °F 61% 30.16 in 7.0 mi NNE 9.2 mph - 0.00 in Snow Light Snow
8:41 PM 33.1 °F 26.1 °F 21.9 °F 64% 30.16 in 2.5 mi NNE 8.1 mph - 0.00 in Snow Light Snow
8:54 PM 32.0 °F 24.8 °F 23.0 °F 69% 30.16 in 3.0 mi NE 8.1 mph - 0.00 in Snow Light Snow
9:04 PM 30.9 °F 21.7 °F 24.1 °F 76% 30.15 in 1.8 mi NNE 11.5 mph 18.4 mph 0.00 in Snow Light Snow
9:12 PM 30.0 °F 20.5 °F 24.1 °F 79% 30.15 in 1.0 mi NNE 11.5 mph - 0.00 in Snow Light Snow
9:33 PM 28.9 °F 22.8 °F 26.1 °F 89% 30.15 in 1.5 mi NNE 5.8 mph - 0.02 in Snow Light Snow
9:54 PM 28.9 °F 20.4 °F 27.0 °F 92% 30.14 in 1.2 mi NE 9.2 mph - 0.02 in Snow Light Snow
10:44 PM 28.0 °F 19.3 °F 26.1 °F 92% 30.11 in 1.8 mi NE 9.2 mph - 0.02 in Snow Light Snow
10:54 PM 28.0 °F 19.3 °F 26.1 °F 92% 30.12 in 1.5 mi NNE 9.2 mph - 0.02 in Snow Light Snow
11:50 PM 28.0 °F 18.1 °F 25.0 °F 88% 30.09 in 1.0 mi NNE 11.5 mph - 0.02 in Snow Light Snow